Location: Rowland
(34.5359°N, 79.2929°W)
Time: 02:34:17
(UTC+00:00)

Tiangong - Visible Passes

Search period start: 19 August 2022 00:00
Search period end: 29 August 2022 00:00
Orbit: 381 x 385 km, 41.5° (Epoch: 18 August)

Date Brightness Start Highest point End Pass type
(mag) Time Alt. Az. Time Alt. Az. Time Alt. Az.
19 Aug -1.3 00:24:12 10° W 00:27:17 52° NNW 00:30:22 10° ENE visible
19 Aug 0.0 02:01:54 10° WNW 02:04:29 23° N 02:04:31 22° N visible
20 Aug -0.2 01:01:21 10° WNW 01:04:05 26° N 01:06:48 10° NE visible
20 Aug 1.3 02:38:49 10° NW 02:39:18 13° NW 02:39:18 13° NW visible
21 Aug -0.1 01:38:29 10° NW 01:41:01 22° N 01:41:50 20° NNE visible
22 Aug 0.0 00:37:59 10° WNW 00:40:34 23° N 00:43:09 10° NE visible
22 Aug 0.6 02:15:07 10° NW 02:16:27 19° NNW 02:16:27 19° NNW visible
23 Aug -0.2 01:14:51 10° NW 01:17:29 23° N 01:18:53 18° NE visible
24 Aug -0.5 01:51:17 10° NW 01:53:27 32° NNW 01:53:27 32° NNW visible
25 Aug -0.6 00:51:03 10° NW 00:53:51 28° NNE 00:55:51 15° ENE visible
25 Aug 1.3 02:27:41 10° WNW 02:28:00 12° WNW 02:28:00 12° WNW visible
26 Aug -2.0 01:27:23 10° WNW 01:30:25 63° N 01:30:25 63° N visible
27 Aug -1.2 00:27:08 10° NW 00:30:07 39° NNE 00:32:51 12° E visible
27 Aug 0.6 02:03:58 10° W 02:05:01 18° W 02:05:01 18° W visible
28 Aug -2.1 01:03:28 10° WNW 01:06:37 71° SSW 01:07:29 42° SE visible
